Year,Month,Day,Hour,Minute,Value (Times are PST for temperature in C)
2016,03,22,00,00,6.50
2016,03,22,00,01,6.40
2016,03,22,00,02,6.40
2016,03,22,00,03,6.40
2016,03,22,00,04,6.40
2016,03,22,00,05,6.30
2016,03,22,00,06,6.30
2016,03,22,00,07,6.30
2016,03,22,00,08,6.30
2016,03,22,00,09,6.30
2016,03,22,00,10,6.30
2016,03,22,00,11,6.30
2016,03,22,00,12,6.30
2016,03,22,00,13,6.30
2016,03,22,00,14,6.30
2016,03,22,00,15,6.30
2016,03,22,00,16,6.30
2016,03,22,00,17,6.30
2016,03,22,00,18,6.30
2016,03,22,00,19,6.20
2016,03,22,00,20,6.20
2016,03,22,00,21,6.20
2016,03,22,00,22,6.20
2016,03,22,00,23,6.20
2016,03,22,00,24,6.10
2016,03,22,00,25,6.10
2016,03,22,00,26,6.10
2016,03,22,00,27,6.10
2016,03,22,00,28,6.10
2016,03,22,00,29,6.10
2016,03,22,00,30,6.10
2016,03,22,00,31,6.00
2016,03,22,00,32,6.00
2016,03,22,00,33,5.90
2016,03,22,00,34,5.90
2016,03,22,00,35,5.90
2016,03,22,00,36,5.90
2016,03,22,00,37,5.90
2016,03,22,00,38,5.90
2016,03,22,00,39,5.80
2016,03,22,00,40,5.80
2016,03,22,00,41,5.80
2016,03,22,00,42,5.80
2016,03,22,00,43,5.80
2016,03,22,00,44,5.80
2016,03,22,00,45,5.80
2016,03,22,00,46,5.80
2016,03,22,00,47,5.80
2016,03,22,00,48,5.80
2016,03,22,00,49,5.80
2016,03,22,00,50,5.80
2016,03,22,00,51,5.80
2016,03,22,00,52,5.80
2016,03,22,00,53,5.80
2016,03,22,00,54,5.80
2016,03,22,00,55,5.80
2016,03,22,00,56,5.80
2016,03,22,00,57,5.80
2016,03,22,00,58,5.80
2016,03,22,00,59,5.70
2016,03,22,01,00,5.70
2016,03,22,01,01,5.70
2016,03,22,01,02,5.70
2016,03,22,01,03,5.70
2016,03,22,01,04,5.70
2016,03,22,01,05,5.70
2016,03,22,01,06,5.70
2016,03,22,01,07,5.70
2016,03,22,01,08,5.70
2016,03,22,01,09,5.70
2016,03,22,01,10,5.70
2016,03,22,01,11,5.70
2016,03,22,01,12,5.70
2016,03,22,01,13,5.70
2016,03,22,01,14,5.70
2016,03,22,01,15,5.70
2016,03,22,01,16,5.70
2016,03,22,01,17,5.70
2016,03,22,01,18,5.70
2016,03,22,01,19,5.60
2016,03,22,01,20,5.60
2016,03,22,01,21,5.60
2016,03,22,01,22,5.60
2016,03,22,01,23,5.60
2016,03,22,01,24,5.60
2016,03,22,01,25,5.60
2016,03,22,01,26,5.60
2016,03,22,01,27,5.60
2016,03,22,01,28,5.60
2016,03,22,01,29,5.60
2016,03,22,01,30,5.60
2016,03,22,01,31,5.60
2016,03,22,01,32,5.60
2016,03,22,01,33,5.60
2016,03,22,01,34,5.60
2016,03,22,01,35,5.60
2016,03,22,01,36,5.60
2016,03,22,01,37,5.60
2016,03,22,01,38,5.60
2016,03,22,01,39,5.60
2016,03,22,01,40,5.70
2016,03,22,01,41,5.70
2016,03,22,01,42,5.80
2016,03,22,01,43,5.80
2016,03,22,01,44,5.80
2016,03,22,01,45,5.80
2016,03,22,01,46,5.70
2016,03,22,01,47,5.70
2016,03,22,01,48,5.70
2016,03,22,01,49,5.70
2016,03,22,01,50,5.60
2016,03,22,01,51,5.60
2016,03,22,01,52,5.60
2016,03,22,01,53,5.60
2016,03,22,01,54,5.60
2016,03,22,01,55,5.60
2016,03,22,01,56,5.70
2016,03,22,01,57,5.70
2016,03,22,01,58,5.70
2016,03,22,01,59,5.70
2016,03,22,02,00,5.70
2016,03,22,02,01,5.70
2016,03,22,02,02,5.70
2016,03,22,02,03,5.70
2016,03,22,02,04,5.70
2016,03,22,02,05,5.70
2016,03,22,02,06,5.60
2016,03,22,02,07,5.60
2016,03,22,02,08,5.60
2016,03,22,02,09,5.60
2016,03,22,02,10,5.60
2016,03,22,02,11,5.60
2016,03,22,02,12,5.60
2016,03,22,02,13,5.60
2016,03,22,02,14,5.60
2016,03,22,02,15,5.60
2016,03,22,02,16,5.50
2016,03,22,02,17,5.50
2016,03,22,02,18,5.40
2016,03,22,02,19,5.40
2016,03,22,02,20,5.40
2016,03,22,02,21,5.40
2016,03,22,02,22,5.40
2016,03,22,02,23,5.40
2016,03,22,02,24,5.40
2016,03,22,02,25,5.40
2016,03,22,02,26,5.40
2016,03,22,02,27,5.40
2016,03,22,02,28,5.30
2016,03,22,02,29,5.30
2016,03,22,02,30,5.30
2016,03,22,02,31,5.30
2016,03,22,02,32,5.30
2016,03,22,02,33,5.30
2016,03,22,02,34,5.30
2016,03,22,02,35,5.30
2016,03,22,02,36,5.30
2016,03,22,02,37,5.30
2016,03,22,02,38,5.30
2016,03,22,02,39,5.20
2016,03,22,02,40,5.20
2016,03,22,02,41,5.20
2016,03,22,02,42,5.30
2016,03,22,02,43,5.30
2016,03,22,02,44,5.30
2016,03,22,02,45,5.30
2016,03,22,02,46,5.30
2016,03,22,02,47,5.20
2016,03,22,02,48,5.20
2016,03,22,02,49,5.20
2016,03,22,02,50,5.10
2016,03,22,02,51,5.10
2016,03,22,02,52,5.10
2016,03,22,02,53,5.10
2016,03,22,02,54,5.10
2016,03,22,02,55,5.20
2016,03,22,02,56,5.20
2016,03,22,02,57,5.20
2016,03,22,02,58,5.20
2016,03,22,02,59,5.30
2016,03,22,03,00,5.40
2016,03,22,03,01,5.50
2016,03,22,03,02,5.60
2016,03,22,03,03,5.70
2016,03,22,03,04,5.70
2016,03,22,03,05,5.80
2016,03,22,03,06,5.80
2016,03,22,03,07,5.80
2016,03,22,03,08,5.80
2016,03,22,03,09,5.80
2016,03,22,03,10,5.80
2016,03,22,03,11,5.70
2016,03,22,03,12,5.60
2016,03,22,03,13,5.50
2016,03,22,03,14,5.50
2016,03,22,03,15,5.40
2016,03,22,03,16,5.40
2016,03,22,03,17,5.40
2016,03,22,03,18,5.40
2016,03,22,03,19,5.40
2016,03,22,03,20,5.40
2016,03,22,03,21,5.40
2016,03,22,03,22,5.40
2016,03,22,03,23,5.40
2016,03,22,03,24,5.40
2016,03,22,03,25,5.30
2016,03,22,03,26,5.30
2016,03,22,03,27,5.20
2016,03,22,03,28,5.20
2016,03,22,03,29,5.20
2016,03,22,03,30,5.20
2016,03,22,03,31,5.20
2016,03,22,03,32,5.20
2016,03,22,03,33,5.10
2016,03,22,03,34,5.10
2016,03,22,03,35,5.10
2016,03,22,03,36,5.10
2016,03,22,03,37,5.00
2016,03,22,03,38,5.00
2016,03,22,03,39,5.00
2016,03,22,03,40,5.00
2016,03,22,03,41,5.00
2016,03,22,03,42,5.00
2016,03,22,03,43,4.90
2016,03,22,03,44,4.90
2016,03,22,03,45,4.80
2016,03,22,03,46,4.80
2016,03,22,03,47,4.80
2016,03,22,03,48,4.80
2016,03,22,03,49,4.80
2016,03,22,03,50,4.80
2016,03,22,03,51,4.80
2016,03,22,03,52,4.80
2016,03,22,03,53,4.80
2016,03,22,03,54,4.80
2016,03,22,03,55,4.80
2016,03,22,03,56,4.70
2016,03,22,03,57,4.70
2016,03,22,03,58,4.70
2016,03,22,03,59,4.70
2016,03,22,04,00,4.70
2016,03,22,04,01,4.60
2016,03,22,04,02,4.60
2016,03,22,04,03,4.60
2016,03,22,04,04,4.60
2016,03,22,04,05,4.60
2016,03,22,04,06,4.70
2016,03,22,04,07,4.70
2016,03,22,04,08,4.70
2016,03,22,04,09,4.70
2016,03,22,04,10,4.70
2016,03,22,04,11,4.70
2016,03,22,04,12,4.70
2016,03,22,04,13,4.70
2016,03,22,04,14,4.60
2016,03,22,04,15,4.60
2016,03,22,04,16,4.60
2016,03,22,04,17,4.60
2016,03,22,04,18,4.60
2016,03,22,04,19,4.60
2016,03,22,04,20,4.50
2016,03,22,04,21,4.50
2016,03,22,04,22,4.50
2016,03,22,04,23,4.40
2016,03,22,04,24,4.40
2016,03,22,04,25,4.40
2016,03,22,04,26,4.40
2016,03,22,04,27,4.40
2016,03,22,04,28,4.30
2016,03,22,04,29,4.30
2016,03,22,04,30,4.30
2016,03,22,04,31,4.30
2016,03,22,04,32,4.30
2016,03,22,04,33,4.30
2016,03,22,04,34,4.30
2016,03,22,04,35,4.30
2016,03,22,04,36,4.30
2016,03,22,04,37,4.20
2016,03,22,04,38,4.20
2016,03,22,04,39,4.20
2016,03,22,04,40,4.20
2016,03,22,04,41,4.20
2016,03,22,04,42,4.20
2016,03,22,04,43,4.20
2016,03,22,04,44,4.20
2016,03,22,04,45,4.10
2016,03,22,04,46,4.10
2016,03,22,04,47,4.10
2016,03,22,04,48,4.00
2016,03,22,04,49,4.00
2016,03,22,04,50,4.00
2016,03,22,04,51,4.00
2016,03,22,04,52,4.00
2016,03,22,04,53,3.90
2016,03,22,04,54,3.90
2016,03,22,04,55,3.90
2016,03,22,04,56,3.90
2016,03,22,04,57,3.90
2016,03,22,04,58,3.90
2016,03,22,04,59,3.90
2016,03,22,05,00,3.90
2016,03,22,05,01,3.90
2016,03,22,05,02,3.80
2016,03,22,05,03,3.80
2016,03,22,05,04,3.80
2016,03,22,05,05,3.80
2016,03,22,05,06,3.80
2016,03,22,05,07,3.80
2016,03,22,05,08,3.80
2016,03,22,05,09,3.70
2016,03,22,05,10,3.70
2016,03,22,05,11,3.70
2016,03,22,05,12,3.70
2016,03,22,05,13,3.70
2016,03,22,05,14,3.70
2016,03,22,05,15,3.70
2016,03,22,05,16,3.70
2016,03,22,05,17,3.70
2016,03,22,05,18,3.70
2016,03,22,05,19,3.70
2016,03,22,05,20,3.70
2016,03,22,05,21,3.70
2016,03,22,05,22,3.70
2016,03,22,05,23,3.70
2016,03,22,05,24,3.70
2016,03,22,05,25,3.70
2016,03,22,05,26,3.70
2016,03,22,05,27,3.70
2016,03,22,05,28,3.70
2016,03,22,05,29,3.70
2016,03,22,05,30,3.70
2016,03,22,05,31,3.70
2016,03,22,05,32,3.70
2016,03,22,05,33,3.70
2016,03,22,05,34,3.70
2016,03,22,05,35,3.70
2016,03,22,05,36,3.70
2016,03,22,05,37,3.70
2016,03,22,05,38,3.70
2016,03,22,05,39,3.70
2016,03,22,05,40,3.70
2016,03,22,05,41,3.70
2016,03,22,05,42,3.70
2016,03,22,05,43,3.60
2016,03,22,05,44,3.60
2016,03,22,05,45,3.60
2016,03,22,05,46,3.60
2016,03,22,05,47,3.60
2016,03,22,05,48,3.60
2016,03,22,05,49,3.60
2016,03,22,05,50,3.60
2016,03,22,05,51,3.60
2016,03,22,05,52,3.60
2016,03,22,05,53,3.60
2016,03,22,05,54,3.60
2016,03,22,05,55,3.60
2016,03,22,05,56,3.70
2016,03,22,05,57,3.70
2016,03,22,05,58,3.70
2016,03,22,05,59,3.70
2016,03,22,06,00,3.70
2016,03,22,06,01,3.80
2016,03,22,06,02,3.80
2016,03,22,06,03,3.80
2016,03,22,06,04,3.80
2016,03,22,06,05,3.80
2016,03,22,06,06,3.80
2016,03,22,06,07,3.90
2016,03,22,06,08,3.90
2016,03,22,06,09,3.90
2016,03,22,06,10,3.90
2016,03,22,06,11,3.90
2016,03,22,06,12,3.90
2016,03,22,06,13,3.90
2016,03,22,06,14,4.00
2016,03,22,06,15,4.00
2016,03,22,06,16,4.00
2016,03,22,06,17,4.10
2016,03,22,06,18,4.10
2016,03,22,06,19,4.10
2016,03,22,06,20,4.10
2016,03,22,06,21,4.00
2016,03,22,06,22,4.00
2016,03,22,06,23,4.00
2016,03,22,06,24,4.00
2016,03,22,06,25,4.10
2016,03,22,06,26,4.10
2016,03,22,06,27,4.10
2016,03,22,06,28,4.00
2016,03,22,06,29,4.00
2016,03,22,06,30,4.00
2016,03,22,06,31,4.00
2016,03,22,06,32,4.00
2016,03,22,06,33,4.00
2016,03,22,06,34,4.10
2016,03,22,06,35,4.10
2016,03,22,06,36,4.10
2016,03,22,06,37,4.10
2016,03,22,06,38,4.20
2016,03,22,06,39,4.20
2016,03,22,06,40,4.20
2016,03,22,06,41,4.20
2016,03,22,06,42,4.30
2016,03,22,06,43,4.30
2016,03,22,06,44,4.30
2016,03,22,06,45,4.40
2016,03,22,06,46,4.50
2016,03,22,06,47,4.60
2016,03,22,06,48,4.60
2016,03,22,06,49,4.70
2016,03,22,06,50,4.70
2016,03,22,06,51,4.70
2016,03,22,06,52,4.70
2016,03,22,06,53,4.70
2016,03,22,06,54,4.70
2016,03,22,06,55,4.60
2016,03,22,06,56,4.60
2016,03,22,06,57,4.60
2016,03,22,06,58,4.60
2016,03,22,06,59,4.50
2016,03,22,07,00,4.50
2016,03,22,07,01,4.40
2016,03,22,07,02,4.40
2016,03,22,07,03,4.40
2016,03,22,07,04,4.40
2016,03,22,07,05,4.50
2016,03,22,07,06,4.50
2016,03,22,07,07,4.50
2016,03,22,07,08,4.60
2016,03,22,07,09,4.60
2016,03,22,07,10,4.60
2016,03,22,07,11,4.70
2016,03,22,07,12,4.70
2016,03,22,07,13,4.70
2016,03,22,07,14,4.70
2016,03,22,07,15,4.70
2016,03,22,07,16,4.70
2016,03,22,07,17,4.70
2016,03,22,07,18,4.70
2016,03,22,07,19,4.70
2016,03,22,07,20,4.70
2016,03,22,07,21,4.70
2016,03,22,07,22,4.70
2016,03,22,07,23,4.60
2016,03,22,07,24,4.60
2016,03,22,07,25,4.60
2016,03,22,07,26,4.60
2016,03,22,07,27,4.60
2016,03,22,07,28,4.60
2016,03,22,07,29,4.60
2016,03,22,07,30,4.60
2016,03,22,07,31,4.60
2016,03,22,07,32,4.60
2016,03,22,07,33,4.60
2016,03,22,07,34,4.60
2016,03,22,07,35,4.70
2016,03,22,07,36,4.70
2016,03,22,07,37,4.70
2016,03,22,07,38,4.70
2016,03,22,07,39,4.70
2016,03,22,07,40,4.70
2016,03,22,07,41,4.70
2016,03,22,07,42,4.70
2016,03,22,07,43,4.70
2016,03,22,07,44,4.70
2016,03,22,07,45,4.70
2016,03,22,07,46,4.70
2016,03,22,07,47,4.70
2016,03,22,07,48,4.70
2016,03,22,07,49,4.70
2016,03,22,07,50,4.70
2016,03,22,07,51,4.70
2016,03,22,07,52,4.70
2016,03,22,07,53,4.60
2016,03,22,07,54,4.60
2016,03,22,07,55,4.60
2016,03,22,07,56,4.60
2016,03,22,07,57,4.60
2016,03,22,07,58,4.70
2016,03,22,07,59,4.70
2016,03,22,08,00,4.70
2016,03,22,08,01,4.80
2016,03,22,08,02,4.80
2016,03,22,08,03,4.80
2016,03,22,08,04,4.90
2016,03,22,08,05,4.90
2016,03,22,08,06,4.90
2016,03,22,08,07,5.00
2016,03,22,08,08,5.00
2016,03,22,08,09,5.00
2016,03,22,08,10,5.00
2016,03,22,08,11,5.10
2016,03,22,08,12,5.10
2016,03,22,08,13,5.10
2016,03,22,08,14,5.10
2016,03,22,08,15,5.10
2016,03,22,08,16,5.10
2016,03,22,08,17,5.20
2016,03,22,08,18,5.20
2016,03,22,08,19,5.20
2016,03,22,08,20,5.20
2016,03,22,08,21,5.30
2016,03,22,08,22,5.30
2016,03,22,08,23,5.40
2016,03,22,08,24,5.40
2016,03,22,08,25,5.50
2016,03,22,08,26,5.60
2016,03,22,08,27,5.60
2016,03,22,08,28,5.70
2016,03,22,08,29,5.80
2016,03,22,08,30,5.80
2016,03,22,08,31,5.90
2016,03,22,08,32,6.00
2016,03,22,08,33,6.10
2016,03,22,08,34,6.10
2016,03,22,08,35,6.10
2016,03,22,08,36,6.20
2016,03,22,08,37,6.20
2016,03,22,08,38,6.20
2016,03,22,08,39,6.20
2016,03,22,08,40,6.20
2016,03,22,08,41,6.30
2016,03,22,08,42,6.30
2016,03,22,08,43,6.40
2016,03,22,08,44,6.40
2016,03,22,08,45,6.40
2016,03,22,08,46,6.50
2016,03,22,08,47,6.50
2016,03,22,08,48,6.50
2016,03,22,08,49,6.60
2016,03,22,08,50,6.60
2016,03,22,08,51,6.60
2016,03,22,08,52,6.60
2016,03,22,08,53,6.60
2016,03,22,08,54,6.70
2016,03,22,08,55,6.60
2016,03,22,08,56,6.70
2016,03,22,08,57,6.70
2016,03,22,08,58,6.70
2016,03,22,08,59,6.70
2016,03,22,09,00,6.70
2016,03,22,09,01,6.70
2016,03,22,09,02,6.70
2016,03,22,09,03,6.80
2016,03,22,09,04,6.80
2016,03,22,09,05,6.80
2016,03,22,09,06,6.80
2016,03,22,09,07,6.80
2016,03,22,09,08,6.80
2016,03,22,09,09,6.90
2016,03,22,09,10,6.90
2016,03,22,09,11,6.90
2016,03,22,09,12,6.90
2016,03,22,09,13,7.00
2016,03,22,09,14,7.00
2016,03,22,09,15,7.10
2016,03,22,09,16,7.10
2016,03,22,09,17,7.20
2016,03,22,09,18,7.20
2016,03,22,09,19,7.30
2016,03,22,09,20,7.30
2016,03,22,09,21,7.40
2016,03,22,09,22,7.50
2016,03,22,09,23,7.70
2016,03,22,09,24,7.80
2016,03,22,09,25,8.00
2016,03,22,09,26,8.10
2016,03,22,09,27,8.20
2016,03,22,09,28,8.30
2016,03,22,09,29,8.30
2016,03,22,09,30,8.40
2016,03,22,09,31,8.50
2016,03,22,09,32,8.60
2016,03,22,09,33,8.70
2016,03,22,09,34,8.80
2016,03,22,09,35,8.90
2016,03,22,09,36,9.00
2016,03,22,09,37,9.20
2016,03,22,09,38,9.20
2016,03,22,09,39,9.30
2016,03,22,09,40,9.30
2016,03,22,09,41,9.40
2016,03,22,09,42,9.40
2016,03,22,09,43,9.40
2016,03,22,09,44,9.50
2016,03,22,09,45,9.50
2016,03,22,09,46,9.50
2016,03,22,09,47,9.50
2016,03,22,09,48,9.60
2016,03,22,09,49,9.60
2016,03,22,09,50,9.60
2016,03,22,09,51,9.60
2016,03,22,09,52,9.60
2016,03,22,09,53,9.70
2016,03,22,09,54,9.80
2016,03,22,09,55,9.80
2016,03,22,09,56,9.90
2016,03,22,09,57,10.00
2016,03,22,09,58,10.00
2016,03,22,09,59,10.10
2016,03,22,10,00,10.10
2016,03,22,10,01,10.10
2016,03,22,10,02,10.10
2016,03,22,10,03,10.10
2016,03,22,10,04,10.20
2016,03,22,10,05,10.20
2016,03,22,10,06,10.20
2016,03,22,10,07,10.20
2016,03,22,10,08,10.30
2016,03,22,10,09,10.30
2016,03,22,10,10,10.40
2016,03,22,10,11,10.40
2016,03,22,10,12,10.40
2016,03,22,10,13,10.50
2016,03,22,10,14,10.50
2016,03,22,10,15,10.60
2016,03,22,10,16,10.60
2016,03,22,10,17,10.70
2016,03,22,10,18,10.70
2016,03,22,10,19,10.70
2016,03,22,10,20,10.80
2016,03,22,10,21,10.80
2016,03,22,10,22,10.90
2016,03,22,10,23,10.90
2016,03,22,10,24,10.90
2016,03,22,10,25,11.00
2016,03,22,10,26,11.00
2016,03,22,10,27,11.00
2016,03,22,10,28,11.10
2016,03,22,10,29,11.10
2016,03,22,10,30,11.10
2016,03,22,10,31,11.10
2016,03,22,10,32,11.10
2016,03,22,10,33,11.20
2016,03,22,10,34,11.20
2016,03,22,10,35,11.20
2016,03,22,10,36,11.20
2016,03,22,10,37,11.30
2016,03,22,10,38,11.30
2016,03,22,10,39,11.30
2016,03,22,10,40,11.30
2016,03,22,10,41,11.40
2016,03,22,10,42,11.40
2016,03,22,10,43,11.40
2016,03,22,10,44,11.40
2016,03,22,10,45,11.40
2016,03,22,10,46,11.50
2016,03,22,10,47,11.50
2016,03,22,10,48,11.60
2016,03,22,10,49,11.60
2016,03,22,10,50,11.60
2016,03,22,10,51,11.60
2016,03,22,10,52,11.60
2016,03,22,10,53,11.50
2016,03,22,10,54,11.50
2016,03,22,10,55,11.50
2016,03,22,10,56,11.40
2016,03,22,10,57,11.40
2016,03,22,10,58,11.40
2016,03,22,10,59,11.40
2016,03,22,11,00,11.40
2016,03,22,11,01,11.40
2016,03,22,11,02,11.40
2016,03,22,11,03,11.40
2016,03,22,11,04,11.40
2016,03,22,11,05,11.40
2016,03,22,11,06,11.50
2016,03,22,11,07,11.50
2016,03,22,11,08,11.60
2016,03,22,11,09,11.70
2016,03,22,11,10,11.70
2016,03,22,11,11,11.80
2016,03,22,11,12,11.90
2016,03,22,11,13,11.90
2016,03,22,11,14,11.90
2016,03,22,11,15,11.90
2016,03,22,11,16,11.90
2016,03,22,11,17,11.90
2016,03,22,11,18,11.90
2016,03,22,11,19,11.90
2016,03,22,11,20,11.90
2016,03,22,11,21,11.90
2016,03,22,11,22,11.90
2016,03,22,11,23,11.90
2016,03,22,11,24,11.90
2016,03,22,11,25,12.00
2016,03,22,11,26,11.90
2016,03,22,11,27,11.90
2016,03,22,11,28,11.90
2016,03,22,11,29,11.90
2016,03,22,11,30,12.00
2016,03,22,11,31,12.00
2016,03,22,11,32,12.10
2016,03,22,11,33,12.20
2016,03,22,11,34,12.30
2016,03,22,11,35,12.30
2016,03,22,11,36,12.30
2016,03,22,11,37,12.40
2016,03,22,11,38,12.40
2016,03,22,11,39,12.40
2016,03,22,11,40,12.40
2016,03,22,11,41,12.40
2016,03,22,11,42,12.40
2016,03,22,11,43,12.40
2016,03,22,11,44,12.30
2016,03,22,11,45,12.30
2016,03,22,11,46,12.30
2016,03,22,11,47,12.30
2016,03,22,11,48,12.20
2016,03,22,11,49,12.20
2016,03,22,11,50,12.20
2016,03,22,11,51,12.30
2016,03,22,11,52,12.30
2016,03,22,11,53,12.30
2016,03,22,11,54,12.30
2016,03,22,11,55,12.30
2016,03,22,11,56,12.30
2016,03,22,11,57,12.30
2016,03,22,11,58,12.30
2016,03,22,11,59,12.40
2016,03,22,12,00,12.30
2016,03,22,12,01,12.30
2016,03,22,12,02,12.20
2016,03,22,12,03,12.20
2016,03,22,12,04,12.20
2016,03,22,12,05,12.20
2016,03,22,12,06,12.20
2016,03,22,12,07,12.20
2016,03,22,12,08,12.20
2016,03,22,12,09,12.20
2016,03,22,12,10,12.20
2016,03,22,12,11,12.30
2016,03,22,12,12,12.30
2016,03,22,12,13,12.30
2016,03,22,12,14,12.20
2016,03,22,12,15,12.20
2016,03,22,12,16,12.20
2016,03,22,12,17,12.20
2016,03,22,12,18,12.20
2016,03,22,12,19,12.20
2016,03,22,12,20,12.20
2016,03,22,12,21,12.20
2016,03,22,12,22,12.20
2016,03,22,12,23,12.30
2016,03,22,12,24,12.40
2016,03,22,12,25,12.40
2016,03,22,12,26,12.60
2016,03,22,12,27,12.70
2016,03,22,12,28,12.80
2016,03,22,12,29,12.90
2016,03,22,12,30,12.90
2016,03,22,12,31,12.90
2016,03,22,12,32,12.90
2016,03,22,12,33,12.80
2016,03,22,12,34,12.80
2016,03,22,12,35,12.70
2016,03,22,12,36,12.70
2016,03,22,12,37,12.70
2016,03,22,12,38,12.70
2016,03,22,12,39,12.70
2016,03,22,12,40,12.80
2016,03,22,12,41,12.80
2016,03,22,12,42,12.80
2016,03,22,12,43,12.80
2016,03,22,12,44,12.90
2016,03,22,12,45,12.90
2016,03,22,12,46,13.00
2016,03,22,12,47,13.00
2016,03,22,12,48,13.10
2016,03,22,12,49,13.10
2016,03,22,12,50,13.20
2016,03,22,12,51,13.20
2016,03,22,12,52,13.20
2016,03,22,12,53,13.10
2016,03,22,12,54,13.10
2016,03,22,12,55,13.00
2016,03,22,12,56,13.00
2016,03,22,12,57,13.00
2016,03,22,12,58,13.00
2016,03,22,12,59,13.00
2016,03,22,13,00,13.10
2016,03,22,13,01,13.10
2016,03,22,13,02,13.20
2016,03,22,13,03,13.20
2016,03,22,13,04,13.20
2016,03,22,13,05,13.30
2016,03,22,13,06,13.30
2016,03,22,13,07,13.30
2016,03,22,13,08,13.30
2016,03,22,13,09,13.30
2016,03,22,13,10,13.30
2016,03,22,13,11,13.20
2016,03,22,13,12,13.20
2016,03,22,13,13,13.10
2016,03,22,13,14,13.10
2016,03,22,13,15,13.10
2016,03,22,13,16,13.10
2016,03,22,13,17,13.10
2016,03,22,13,18,13.00
2016,03,22,13,19,12.90
2016,03,22,13,20,12.90
2016,03,22,13,21,12.80
2016,03,22,13,22,12.90
2016,03,22,13,23,12.90
2016,03,22,13,24,12.90
2016,03,22,13,25,12.90
2016,03,22,13,26,12.90
2016,03,22,13,27,12.90
2016,03,22,13,28,12.90
2016,03,22,13,29,12.90
2016,03,22,13,30,12.90
2016,03,22,13,31,12.80
2016,03,22,13,32,12.80
2016,03,22,13,33,12.90
2016,03,22,13,34,13.00
2016,03,22,13,35,13.00
2016,03,22,13,36,13.10
2016,03,22,13,37,13.20
2016,03,22,13,38,13.20
2016,03,22,13,39,13.30
2016,03,22,13,40,13.40
2016,03,22,13,41,13.40
2016,03,22,13,42,13.40
2016,03,22,13,43,13.40
2016,03,22,13,44,13.40
2016,03,22,13,45,13.40
2016,03,22,13,46,13.40
2016,03,22,13,47,13.40
2016,03,22,13,48,13.50
2016,03,22,13,49,13.50
2016,03,22,13,50,13.50
2016,03,22,13,51,13.50
2016,03,22,13,52,13.40
2016,03,22,13,53,13.40
2016,03,22,13,54,13.50
2016,03,22,13,55,13.50
2016,03,22,13,56,13.50
2016,03,22,13,57,13.60
2016,03,22,13,58,13.60
2016,03,22,13,59,13.60
2016,03,22,14,00,13.60
2016,03,22,14,01,13.60
2016,03,22,14,02,13.60
2016,03,22,14,03,13.60
2016,03,22,14,04,13.60
2016,03,22,14,05,13.70
2016,03,22,14,06,13.70
2016,03,22,14,07,13.70
2016,03,22,14,08,13.70
2016,03,22,14,09,13.70
2016,03,22,14,10,13.70
2016,03,22,14,11,13.70
2016,03,22,14,12,13.70
2016,03,22,14,13,13.60
2016,03,22,14,14,13.50
2016,03,22,14,15,13.40
2016,03,22,14,16,13.40
2016,03,22,14,17,13.40
2016,03,22,14,18,13.40
2016,03,22,14,19,13.30
2016,03,22,14,20,13.30
2016,03,22,14,21,13.30
2016,03,22,14,22,13.40
2016,03,22,14,23,13.30
2016,03,22,14,24,13.30
2016,03,22,14,25,13.30
2016,03,22,14,26,13.30
2016,03,22,14,27,13.30
2016,03,22,14,28,13.30
2016,03,22,14,29,13.30
2016,03,22,14,30,13.30
2016,03,22,14,31,13.30
2016,03,22,14,32,13.20
2016,03,22,14,33,13.20
2016,03,22,14,34,13.20
2016,03,22,14,35,13.20
2016,03,22,14,36,13.20
2016,03,22,14,37,13.20
2016,03,22,14,38,13.20
2016,03,22,14,39,13.20
2016,03,22,14,40,13.20
2016,03,22,14,41,13.20
2016,03,22,14,42,13.20
2016,03,22,14,43,13.20
2016,03,22,14,44,13.20
2016,03,22,14,45,13.20
2016,03,22,14,46,13.20
2016,03,22,14,47,13.30
2016,03,22,14,48,13.30
2016,03,22,14,49,13.20
2016,03,22,14,50,13.20
2016,03,22,14,51,13.20
2016,03,22,14,52,13.10
2016,03,22,14,53,13.00
2016,03,22,14,54,12.90
2016,03,22,14,55,12.80
2016,03,22,14,56,12.70
2016,03,22,14,57,12.60
2016,03,22,14,58,12.60
2016,03,22,14,59,12.50
2016,03,22,15,00,12.50
2016,03,22,15,01,12.40
2016,03,22,15,02,12.40
2016,03,22,15,03,12.40
2016,03,22,15,04,12.40
2016,03,22,15,05,12.40
2016,03,22,15,06,12.40
2016,03,22,15,07,12.40
2016,03,22,15,08,12.50
2016,03,22,15,09,12.50
2016,03,22,15,10,12.50
2016,03,22,15,11,12.50
2016,03,22,15,12,12.50
2016,03,22,15,13,12.60
2016,03,22,15,14,12.60
2016,03,22,15,15,12.60
2016,03,22,15,16,12.70
2016,03,22,15,17,12.70
2016,03,22,15,18,12.70
2016,03,22,15,19,12.80
2016,03,22,15,20,12.70
2016,03,22,15,21,12.60
2016,03,22,15,22,12.40
2016,03,22,15,23,12.20
2016,03,22,15,24,12.00
2016,03,22,15,25,11.80
2016,03,22,15,26,11.60
2016,03,22,15,27,11.50
2016,03,22,15,28,11.50
2016,03,22,15,29,11.40
2016,03,22,15,30,11.40
2016,03,22,15,31,11.40
2016,03,22,15,32,11.50
2016,03,22,15,33,11.60
2016,03,22,15,34,11.60
2016,03,22,15,35,11.70
2016,03,22,15,36,11.80
2016,03,22,15,37,11.80
2016,03,22,15,38,11.90
2016,03,22,15,39,11.90
2016,03,22,15,40,12.00
2016,03,22,15,41,12.00
2016,03,22,15,42,12.00
2016,03,22,15,43,12.10
2016,03,22,15,44,12.10
2016,03,22,15,45,12.10
2016,03,22,15,46,12.10
2016,03,22,15,47,12.10
2016,03,22,15,48,12.20
2016,03,22,15,49,12.20
2016,03,22,15,50,12.20
2016,03,22,15,51,12.20
2016,03,22,15,52,12.20
2016,03,22,15,53,12.30
2016,03,22,15,54,12.30
2016,03,22,15,55,12.40
2016,03,22,15,56,12.40
2016,03,22,15,57,12.40
2016,03,22,15,58,12.50
2016,03,22,15,59,12.50
2016,03,22,16,00,12.60
2016,03,22,16,01,12.60
2016,03,22,16,02,12.60
2016,03,22,16,03,12.60
2016,03,22,16,04,12.60
2016,03,22,16,05,12.70
2016,03,22,16,06,12.70
2016,03,22,16,07,12.70
2016,03,22,16,08,12.80
2016,03,22,16,09,12.80
2016,03,22,16,10,12.80
2016,03,22,16,11,12.80
2016,03,22,16,12,12.80
2016,03,22,16,13,12.80
2016,03,22,16,14,12.70
2016,03,22,16,15,12.70
2016,03,22,16,16,12.80
2016,03,22,16,17,12.80
2016,03,22,16,18,12.90
2016,03,22,16,19,13.00
2016,03,22,16,20,13.10
2016,03,22,16,21,13.20
2016,03,22,16,22,13.30
2016,03,22,16,23,13.30
2016,03,22,16,24,13.40
2016,03,22,16,25,13.40
2016,03,22,16,26,13.40
2016,03,22,16,27,13.40
2016,03,22,16,28,13.40
2016,03,22,16,29,13.40
2016,03,22,16,30,13.40
2016,03,22,16,31,13.40
2016,03,22,16,32,13.50
2016,03,22,16,33,13.50
2016,03,22,16,34,13.60
2016,03,22,16,35,13.70
2016,03,22,16,36,13.80
2016,03,22,16,37,13.90
2016,03,22,16,38,14.00
2016,03,22,16,39,14.10
2016,03,22,16,40,14.20
2016,03,22,16,41,14.30
2016,03,22,16,42,14.40
2016,03,22,16,43,14.50
2016,03,22,16,44,14.50
2016,03,22,16,45,14.50
2016,03,22,16,46,14.50
2016,03,22,16,47,14.50
2016,03,22,16,48,14.40
2016,03,22,16,49,14.40
2016,03,22,16,50,14.30
2016,03,22,16,51,14.20
2016,03,22,16,52,14.10
2016,03,22,16,53,14.10
2016,03,22,16,54,14.10
2016,03,22,16,55,14.20
2016,03,22,16,56,14.20
2016,03,22,16,57,14.20
2016,03,22,16,58,14.20
2016,03,22,16,59,14.10
2016,03,22,17,00,14.10
2016,03,22,17,01,14.10
2016,03,22,17,02,14.10
2016,03,22,17,03,14.10
2016,03,22,17,04,14.10
2016,03,22,17,05,14.10
2016,03,22,17,06,14.10
2016,03,22,17,07,14.00
2016,03,22,17,08,14.00
2016,03,22,17,09,14.00
2016,03,22,17,10,13.90
2016,03,22,17,11,13.90
2016,03,22,17,12,13.90
2016,03,22,17,13,13.90
2016,03,22,17,14,13.80
2016,03,22,17,15,13.80
2016,03,22,17,16,13.80
2016,03,22,17,17,13.80
2016,03,22,17,18,13.70
2016,03,22,17,19,13.70
2016,03,22,17,20,13.70
2016,03,22,17,21,13.60
2016,03,22,17,22,13.60
2016,03,22,17,23,13.50
2016,03,22,17,24,13.50
2016,03,22,17,25,13.50
2016,03,22,17,26,13.40
2016,03,22,17,27,13.40
2016,03,22,17,28,13.40
2016,03,22,17,29,13.40
2016,03,22,17,30,13.40
2016,03,22,17,31,13.40
2016,03,22,17,32,13.30
2016,03,22,17,33,13.30
2016,03,22,17,34,13.30
2016,03,22,17,35,13.30
2016,03,22,17,36,13.20
2016,03,22,17,37,13.20
2016,03,22,17,38,13.20
2016,03,22,17,39,13.20
2016,03,22,17,40,13.20
2016,03,22,17,41,13.20
2016,03,22,17,42,13.10
2016,03,22,17,43,13.10
2016,03,22,17,44,13.00
2016,03,22,17,45,13.00